Tracking 22842 objects as of 15-Apr-2021
HD Live streaming from Space Station
objects crossing your sky now

EXPLORER 22

Track EXPLORER 22 now!
10-day predictions
EXPLORER 22 is classified as:


NORAD ID: 899
Int'l Code: 1964-064A
Perigee: 874.1 km
Apogee: 1,052.5 km
Inclination: 79.7 °
Period: 104.2 minutes
Semi major axis: 7334 km
RCS: 1.5662 m2 (large)
Launch date: October 10, 1964
Source: United States (US)
Launch site: AIR FORCE WESTERN TEST RANGE (AFWTR)
aabbcc
Your satellite tracking list
Your tracking list is empty




NASA's NSSDC Master Catalog

Two Line Element Set (TLE):
1   899U 64064A   21105.22343728  .00000108  00000-0  88925-4 0  9991
2   899  79.6939  32.3316 0121635  18.7378 341.8190 13.82170238844367
Source of the keplerian elements: AFSPC